Shelbyville, IN

8:55 PM EST on November 11, 2019 (GMT -0500)
Shelbyville Municipal

Weather History for KGEZ - September, 2019

Change the Weather History Date:

Friday, September 27, 2019

  Actual Average Record
Temperature  
Mean Temperature 70 °F 61 °F  
Max Temperature 91 °F 73 °F 91 °F (2019)
Min Temperature 49 °F 49 °F 41 °F (2000)
Degree Days  
Heating Degree Days 0 6  
Month to date heating degree days 3 60  
Since 1 July heating degree days 3 66  
Cooling Degree Days 5 2  
Month to date cooling degree days 192 91  
Year to date cooling degree days 1253 897  
Growing Degree Days 19 (Base 50)    
Moisture  
Dew Point 54 °F    
Average Humidity 64    
Maximum Humidity 86    
Minimum Humidity 41    
Precipitation  
Precipitation 0.00 in 0.11 in 1.04 in (2002)
Month to date precipitation 0.75 2.83  
Year to date precipitation 32.21 33.11  
Sea Level Pressure  
Sea Level Pressure 29.90 in    
Wind  
Wind Speed 9 mph (SSE)    
Max Wind Speed 22 mph    
Max Gust Speed 33 mph    
Visibility 10 miles    
Events      
T = Trace of Precipitation, MM = Missing Value Source: NWS Daily Summary

Daily Weather History Graph

Daily Weather History Graph

Search for Another Location

Airport or City:

Astronomy

Sep. 27, 2019 Rise Set
Actual Time 7:35 AM EDT 7:32 PM EDT
Civil Twilight 7:08 AM EDT 7:59 PM EDT
Nautical Twilight 6:37 AM EDT 8:30 PM EDT
Astronomical Twilight 6:05 AM EDT 9:02 PM EDT
Moon 5:56 AM EDT (9/27) 7:22 PM EDT (9/27)
Length of Visible Light 12h 50m
Length of Day
11h 57m
Waning Crescent, 2% of the Moon is Illuminated
Sep 27
Waning Crescent
Sep 28
New
Oct 5
First Quarter
Oct 13
Full
Oct 21
Last Quarter

Hourly Weather History & Observations

Time (EDT) Temp. Heat Index Dew Point Humidity Pressure Visibility Wind Dir Wind Speed Gust Speed Precip Events Conditions
12:53 AM 50.0 °F - 45.0 °F 83% 29.99 in 10.0 mi ENE 4.6 mph - N/A   Clear
1:53 AM 48.9 °F - 45.0 °F 86% 29.98 in 10.0 mi East 4.6 mph - N/A   Clear
2:53 AM 51.1 °F - 43.0 °F 74% 29.96 in 10.0 mi SE 4.6 mph - N/A   Clear
3:53 AM 51.1 °F - 44.1 °F 77% 29.96 in 10.0 mi ESE 4.6 mph - N/A   Clear
4:53 AM 52.0 °F - 43.0 °F 71% 29.96 in 10.0 mi SE 4.6 mph - N/A   Clear
5:53 AM 51.1 °F - 44.1 °F 77% 29.95 in 10.0 mi ESE 6.9 mph - N/A   Partly Cloudy
6:53 AM 53.1 °F - 44.1 °F 71% 29.97 in 10.0 mi SE 5.8 mph - N/A   Clear
7:53 AM 53.1 °F - 46.0 °F 77% 29.97 in 10.0 mi SE 4.6 mph - N/A   Clear
8:53 AM 59.0 °F - 46.9 °F 64% 29.96 in 10.0 mi SE 8.1 mph - N/A   Clear
9:53 AM 66.0 °F - 48.0 °F 52% 29.95 in 10.0 mi SSE 9.2 mph - N/A   Clear
10:53 AM 73.9 °F - 48.0 °F 40% 29.94 in 10.0 mi South 15.0 mph 23.0 mph N/A   Clear
11:53 AM 80.1 °F 80.1 °F 55.0 °F 42% 29.91 in 10.0 mi South 19.6 mph 28.8 mph N/A   Clear
12:53 PM 82.9 °F 82.6 °F 57.9 °F 42% 29.89 in 10.0 mi South 15.0 mph 24.2 mph N/A   Clear
1:53 PM 86.0 °F 86.1 °F 61.0 °F 43% 29.87 in 10.0 mi SSW 16.1 mph 27.6 mph N/A   Clear
2:53 PM 88.0 °F 88.7 °F 63.0 °F 43% 29.84 in 10.0 mi South 15.0 mph 27.6 mph N/A   Partly Cloudy
3:53 PM 90.0 °F 90.6 °F 63.0 °F 40% 29.82 in 10.0 mi SSW 13.8 mph 26.5 mph N/A   Clear
4:53 PM 88.0 °F 88.4 °F 62.1 °F 42% 29.84 in 10.0 mi SSW 16.1 mph 21.9 mph N/A   Partly Cloudy
5:53 PM 88.0 °F 88.7 °F 63.0 °F 43% 29.83 in 10.0 mi South 8.1 mph - N/A   Clear
6:53 PM 84.9 °F 86.1 °F 64.0 °F 49% 29.84 in 10.0 mi SSW 4.6 mph - N/A   Clear
7:53 PM 77.0 °F - 64.9 °F 66% 29.84 in 10.0 mi SE 3.5 mph - N/A   Partly Cloudy
8:53 PM 73.9 °F - 63.0 °F 68% 29.83 in 10.0 mi SE 5.8 mph - N/A   Clear
9:53 PM 73.9 °F - 63.0 °F 68% 29.83 in 10.0 mi SE 6.9 mph - N/A   Clear
10:53 PM 73.0 °F - 63.0 °F 71% 29.84 in 10.0 mi SE 8.1 mph - N/A   Clear
11:53 PM 73.9 °F - 62.1 °F 66% 29.85 in 10.0 mi South 6.9 mph - N/A   Clear